Starlink 6121

operational
NORAD ID: 56129 Int'l Des: 2023-046 Owner: SPXS Country: US Constellation: starlink
LEOCIRCULAR

About Starlink 6121

Description loading...

Live Position

Loading 3D Globe...

Upcoming Passes

Altitude History

Altitude vs Time

uPlot chart will show altitude changes over time

Two-Line Element Set

1 56129U 23046AP 25338.05201402 .00002056 00000-0 16726-3 0 9991
2 56129 43.0034 253.9147 0001225 263.1608 96.9095 15.02527125148423
Epoch: Dec 4, 2025 • Age: 29 hours

Current Status

Altitude 560.8 km
Velocity 7.59 km/s
Sub-Earth Point 32.93°N, 123.75°E
Launch Date Mar 29, 2023
Age 2.6 years
Type internet

Technical Details

Classification Payload
Mass 305.00 kg
Dry Mass 290.00 kg
Total Mass 305.00 kg
Length 0.20 m
Diameter 2.80 m
Span 9.00 m
Shape Box + pan
Manufacturer SPXS
Bus Type Starlink
Phase Status In Orbit
Owner/State SPXS/US

Large Constellations

Loading constellations...